Time,TemperatureF,DewpointF,PressureIn,WindDirection,WindDirectionDegrees,WindSpeedMPH,WindSpeedGustMPH,Humidity,HourlyPrecipIn,Conditions,Clouds,dailyrainin,SoftwareType,DateUTC
2013-11-25 06:23:00,35.1,31.9,29.68,North,0,0.0,0.0,88,0.00,,---,0.00,VWS V13.01,2013-11-25 12:23:00,
2013-11-25 06:24:00,35.1,31.9,29.68,North,0,0.0,0.0,88,0.55,,---,0.00,VWS V13.01,2013-11-25 12:24:00,
2013-11-25 06:29:00,35.1,31.9,29.68,North,0,0.0,0.0,88,0.55,,---,0.00,VWS V13.01,2013-11-25 12:29:00,
2013-11-25 06:34:00,35.2,32.3,29.68,North,0,0.0,0.0,89,0.59,,---,0.04,VWS V13.01,2013-11-25 12:34:00,
2013-11-25 06:39:00,35.2,32.3,29.68,North,0,0.0,0.0,89,0.59,,---,0.04,VWS V13.01,2013-11-25 12:39:00,
2013-11-25 06:44:00,35.2,32.3,29.68,North,0,0.0,0.0,89,0.59,,---,0.04,VWS V13.01,2013-11-25 12:44:00,
2013-11-25 06:49:00,35.2,32.3,29.68,North,0,0.0,0.0,89,0.59,,---,0.04,VWS V13.01,2013-11-25 12:49:00,
2013-11-25 06:54:00,35.1,32.2,29.68,North,0,0.0,0.0,89,0.59,,---,0.04,VWS V13.01,2013-11-25 12:54:00,
2013-11-25 06:59:00,35.1,32.2,29.68,North,0,0.0,0.0,89,0.59,,---,0.04,VWS V13.01,2013-11-25 12:59:00,
2013-11-25 07:04:00,35.1,32.2,29.65,North,0,0.0,0.0,89,0.59,,---,0.04,VWS V13.01,2013-11-25 13:04:00,
2013-11-25 07:09:00,35.1,32.2,29.65,North,0,0.0,0.0,89,0.63,,---,0.08,VWS V13.01,2013-11-25 13:09:00,
2013-11-25 07:14:00,35.2,32.3,29.65,North,0,0.0,0.0,89,0.63,,---,0.08,VWS V13.01,2013-11-25 13:14:00,
2013-11-25 07:19:00,35.2,32.3,29.68,North,0,0.0,0.0,89,0.63,,---,0.08,VWS V13.01,2013-11-25 13:19:00,
2013-11-25 07:24:00,35.4,32.5,29.68,North,0,0.0,0.0,89,0.63,,---,0.08,VWS V13.01,2013-11-25 13:24:00,
2013-11-25 07:29:00,35.6,32.7,29.68,North,0,0.0,0.0,89,0.08,,---,0.08,VWS V13.01,2013-11-25 13:29:00,
2013-11-25 07:34:00,35.6,32.7,29.68,North,0,0.0,0.0,89,0.04,,---,0.08,VWS V13.01,2013-11-25 13:34:00,
2013-11-25 07:39:00,35.6,32.7,29.68,North,0,0.0,0.0,89,0.04,,---,0.08,VWS V13.01,2013-11-25 13:39:00,
2013-11-25 07:44:00,35.6,32.7,29.68,North,0,0.0,0.0,89,0.04,,---,0.08,VWS V13.01,2013-11-25 13:44:00,
2013-11-25 07:49:00,35.6,32.7,29.65,North,0,0.0,0.0,89,0.04,,---,0.08,VWS V13.01,2013-11-25 13:49:00,
2013-11-25 07:54:00,35.8,32.9,29.65,North,0,0.0,0.0,89,0.04,,---,0.08,VWS V13.01,2013-11-25 13:54:00,
2013-11-25 07:59:00,35.8,32.9,29.65,North,0,0.0,0.0,89,0.04,,---,0.08,VWS V13.01,2013-11-25 13:59:00,
2013-11-25 08:04:00,36.0,33.0,29.65,North,0,0.0,0.0,89,0.04,,---,0.08,VWS V13.01,2013-11-25 14:04:00,
2013-11-25 08:09:00,36.1,33.2,29.65,North,0,0.0,0.0,89,0.00,,---,0.08,VWS V13.01,2013-11-25 14:09:00,
2013-11-25 08:14:00,36.3,33.4,29.65,North,0,0.0,0.0,89,0.04,,---,0.12,VWS V13.01,2013-11-25 14:14:00,
2013-11-25 08:19:00,36.3,33.4,29.68,North,0,0.0,0.0,89,0.04,,---,0.12,VWS V13.01,2013-11-25 14:19:00,
2013-11-25 08:24:00,36.3,33.4,29.68,North,0,0.0,0.0,89,0.04,,---,0.12,VWS V13.01,2013-11-25 14:24:00,
2013-11-25 08:29:00,36.3,33.4,29.68,North,0,0.0,0.0,89,0.04,,---,0.12,VWS V13.01,2013-11-25 14:29:00,
2013-11-25 08:34:00,36.3,33.7,29.68,North,0,0.0,0.0,90,0.04,,---,0.12,VWS V13.01,2013-11-25 14:34:00,
2013-11-25 08:39:00,36.5,33.8,29.68,North,0,0.0,0.0,90,0.04,,---,0.12,VWS V13.01,2013-11-25 14:39:00,
2013-11-25 08:44:00,36.5,33.8,29.68,North,0,0.0,0.0,90,0.04,,---,0.12,VWS V13.01,2013-11-25 14:44:00,
2013-11-25 08:49:00,36.5,33.6,29.68,North,0,0.0,0.0,89,0.04,,---,0.12,VWS V13.01,2013-11-25 14:49:00,
2013-11-25 08:54:00,36.7,33.8,29.68,North,0,0.0,0.0,89,0.04,,---,0.12,VWS V13.01,2013-11-25 14:54:00,
2013-11-25 08:59:00,36.7,33.8,29.68,North,0,0.0,0.0,89,0.04,,---,0.12,VWS V13.01,2013-11-25 14:59:00,
2013-11-25 09:04:00,36.5,33.6,29.68,North,0,0.0,0.0,89,0.04,,---,0.12,VWS V13.01,2013-11-25 15:04:00,
2013-11-25 09:09:00,36.5,33.6,29.68,North,0,0.0,0.0,89,0.04,,---,0.12,VWS V13.01,2013-11-25 15:09:00,
2013-11-25 09:14:00,36.5,33.6,29.68,North,0,0.0,0.0,89,0.00,,---,0.12,VWS V13.01,2013-11-25 15:14:00,
2013-11-25 09:19:00,36.7,33.8,29.68,North,0,0.0,0.0,89,0.00,,---,0.12,VWS V13.01,2013-11-25 15:19:00,
2013-11-25 09:24:00,36.5,33.6,29.68,North,0,0.0,0.0,89,0.00,,---,0.12,VWS V13.01,2013-11-25 15:24:00,
2013-11-25 09:29:00,36.5,33.3,29.68,North,0,0.0,0.0,88,0.00,,---,0.12,VWS V13.01,2013-11-25 15:29:00,
2013-11-25 09:34:00,36.3,33.1,29.65,North,0,0.0,0.0,88,0.00,,---,0.12,VWS V13.01,2013-11-25 15:34:00,
2013-11-25 09:39:00,36.5,33.3,29.65,North,0,0.0,0.0,88,0.00,,---,0.12,VWS V13.01,2013-11-25 15:39:00,
2013-11-25 09:44:00,36.7,33.5,29.65,North,0,0.0,0.0,88,0.00,,---,0.12,VWS V13.01,2013-11-25 15:44:00,
2013-11-25 09:49:00,36.7,33.8,29.65,North,0,0.0,0.0,89,0.00,,---,0.12,VWS V13.01,2013-11-25 15:49:00,
2013-11-25 09:54:00,36.7,33.8,29.65,North,0,0.0,0.0,89,0.00,,---,0.12,VWS V13.01,2013-11-25 15:54:00,
2013-11-25 09:59:00,36.9,33.9,29.65,North,0,0.0,0.0,89,0.00,,---,0.12,VWS V13.01,2013-11-25 15:59:00,
2013-11-25 10:04:00,36.9,33.9,29.68,North,0,0.0,0.0,89,0.00,,---,0.12,VWS V13.01,2013-11-25 16:04:00,
2013-11-25 10:09:00,37.0,34.1,29.68,North,0,0.0,0.0,89,0.00,,---,0.12,VWS V13.01,2013-11-25 16:09:00,
2013-11-25 10:14:00,37.2,34.3,29.68,North,0,0.0,0.0,89,0.00,,---,0.12,VWS V13.01,2013-11-25 16:14:00,
2013-11-25 10:19:00,37.4,34.5,29.65,North,0,0.0,0.0,89,0.00,,---,0.12,VWS V13.01,2013-11-25 16:19:00,
2013-11-25 10:24:00,37.4,34.5,29.65,North,0,0.0,0.0,89,0.00,,---,0.12,VWS V13.01,2013-11-25 16:24:00,
2013-11-25 10:29:00,37.4,34.5,29.65,North,0,0.0,0.0,89,0.00,,---,0.12,VWS V13.01,2013-11-25 16:29:00,
2013-11-25 10:33:00,37.4,34.5,29.65,North,0,0.0,0.0,89,0.00,,---,0.12,VWS V13.01,2013-11-25 16:33:00,
2013-11-25 10:38:00,37.6,34.6,29.65,North,0,0.0,0.0,89,0.00,,---,0.12,VWS V13.01,2013-11-25 16:38:00,
2013-11-25 10:43:00,37.6,34.6,29.65,North,0,0.0,0.0,89,0.00,,---,0.12,VWS V13.01,2013-11-25 16:43:00,
2013-11-25 10:48:00,37.6,34.6,29.65,North,0,0.0,0.0,89,0.00,,---,0.12,VWS V13.01,2013-11-25 16:48:00,
2013-11-25 10:53:00,37.6,34.6,29.65,North,0,0.0,0.0,89,0.00,,---,0.12,VWS V13.01,2013-11-25 16:53:00,
2013-11-25 10:58:00,37.4,34.2,29.65,North,0,0.0,0.0,88,0.00,,---,0.12,VWS V13.01,2013-11-25 16:58:00,
2013-11-25 11:03:00,37.6,34.3,29.65,North,0,0.0,0.0,88,0.00,,---,0.12,VWS V13.01,2013-11-25 17:03:00,
2013-11-25 11:08:00,37.6,34.3,29.65,North,0,0.0,0.0,88,0.00,,---,0.12,VWS V13.01,2013-11-25 17:08:00,
2013-11-25 11:13:00,37.6,34.3,29.65,North,0,0.0,0.0,88,0.00,,---,0.12,VWS V13.01,2013-11-25 17:13:00,
2013-11-25 11:18:00,37.8,34.5,29.65,North,0,0.0,0.0,88,0.00,,---,0.12,VWS V13.01,2013-11-25 17:18:00,
2013-11-25 11:23:00,37.9,34.7,29.65,North,0,0.0,0.0,88,0.00,,---,0.12,VWS V13.01,2013-11-25 17:23:00,
2013-11-25 11:28:00,38.1,34.9,29.65,North,0,0.0,0.0,88,0.00,,---,0.12,VWS V13.01,2013-11-25 17:28:00,
2013-11-25 11:33:00,38.1,34.6,29.65,North,0,0.0,0.0,87,0.00,,---,0.12,VWS V13.01,2013-11-25 17:33:00,
2013-11-25 11:38:00,38.3,34.8,29.65,North,0,0.0,0.0,87,0.00,,---,0.12,VWS V13.01,2013-11-25 17:38:00,
2013-11-25 11:43:00,38.7,35.1,29.65,North,0,0.0,0.0,87,0.00,,---,0.12,VWS V13.01,2013-11-25 17:43:00,
2013-11-25 11:48:00,38.8,35.3,29.65,North,0,0.0,0.0,87,0.00,,---,0.12,VWS V13.01,2013-11-25 17:48:00,
2013-11-25 11:53:00,38.8,35.3,29.65,North,0,0.0,0.0,87,0.00,,---,0.12,VWS V13.01,2013-11-25 17:53:00,
2013-11-25 11:58:00,38.8,35.3,29.65,North,0,0.0,0.0,87,0.00,,---,0.12,VWS V13.01,2013-11-25 17:58:00,
2013-11-25 12:03:00,38.8,35.3,29.62,North,0,0.0,0.0,87,0.00,,---,0.12,VWS V13.01,2013-11-25 18:03:00,
2013-11-25 12:08:00,38.7,34.8,29.62,North,0,0.0,0.0,86,0.00,,---,0.12,VWS V13.01,2013-11-25 18:08:00,
2013-11-25 12:13:00,38.7,34.5,29.62,North,0,0.0,0.0,85,0.00,,---,0.12,VWS V13.01,2013-11-25 18:13:00,
2013-11-25 12:18:00,38.7,34.5,29.62,North,0,0.0,0.0,85,0.00,,---,0.12,VWS V13.01,2013-11-25 18:18:00,
2013-11-25 12:23:00,38.7,34.5,29.62,North,0,0.0,0.0,85,0.00,,---,0.12,VWS V13.01,2013-11-25 18:23:00,
2013-11-25 12:28:00,38.7,34.5,29.62,North,0,0.0,0.0,85,0.00,,---,0.12,VWS V13.01,2013-11-25 18:28:00,
2013-11-25 12:33:00,38.7,34.5,29.62,North,0,0.0,0.0,85,0.00,,---,0.12,VWS V13.01,2013-11-25 18:33:00,
2013-11-25 12:38:00,38.7,34.8,29.62,North,0,0.0,0.0,86,0.00,,---,0.12,VWS V13.01,2013-11-25 18:38:00,
2013-11-25 12:43:00,38.7,34.8,29.62,North,0,0.0,0.0,86,0.00,,---,0.12,VWS V13.01,2013-11-25 18:43:00,
2013-11-25 12:48:00,38.7,34.8,29.59,North,0,0.0,0.0,86,0.00,,---,0.12,VWS V13.01,2013-11-25 18:48:00,
2013-11-25 12:53:00,38.7,34.8,29.59,North,0,0.0,0.0,86,0.00,,---,0.12,VWS V13.01,2013-11-25 18:53:00,
2013-11-25 12:58:00,38.7,34.8,29.59,North,0,0.0,0.0,86,0.00,,---,0.12,VWS V13.01,2013-11-25 18:58:00,
2013-11-25 13:03:00,38.7,35.1,29.59,North,0,0.0,0.0,87,0.00,,---,0.12,VWS V13.01,2013-11-25 19:03:00,
2013-11-25 13:08:00,39.0,35.5,29.59,North,0,0.0,0.0,87,0.00,,---,0.12,VWS V13.01,2013-11-25 19:08:00,
2013-11-25 13:13:00,39.2,35.7,29.59,North,0,0.0,0.0,87,0.00,,---,0.12,VWS V13.01,2013-11-25 19:13:00,
2013-11-25 13:18:00,39.2,35.7,29.59,North,0,0.0,0.0,87,0.00,,---,0.12,VWS V13.01,2013-11-25 19:18:00,
2013-11-25 13:23:00,39.2,35.4,29.59,North,0,0.0,0.0,86,0.00,,---,0.12,VWS V13.01,2013-11-25 19:23:00,
2013-11-25 13:28:00,39.2,35.4,29.59,North,0,0.0,0.0,86,0.00,,---,0.12,VWS V13.01,2013-11-25 19:28:00,
2013-11-25 13:33:00,38.8,35.0,29.59,North,0,0.0,0.0,86,0.00,,---,0.12,VWS V13.01,2013-11-25 19:33:00,
2013-11-25 13:38:00,38.7,34.5,29.59,North,0,0.0,0.0,85,0.00,,---,0.12,VWS V13.01,2013-11-25 19:38:00,
2013-11-25 13:43:00,38.7,34.5,29.59,North,0,0.0,0.0,85,0.00,,---,0.12,VWS V13.01,2013-11-25 19:43:00,
2013-11-25 13:48:00,38.7,34.5,29.59,North,0,0.0,0.0,85,0.00,,---,0.12,VWS V13.01,2013-11-25 19:48:00,
2013-11-25 13:53:00,38.7,34.8,29.59,North,0,0.0,0.0,86,0.00,,---,0.12,VWS V13.01,2013-11-25 19:53:00,
2013-11-25 13:58:00,38.8,35.0,29.59,North,0,0.0,0.0,86,0.00,,---,0.12,VWS V13.01,2013-11-25 19:58:00,
2013-11-25 14:03:00,38.7,34.8,29.59,North,0,0.0,0.0,86,0.00,,---,0.12,VWS V13.01,2013-11-25 20:03:00,
2013-11-25 14:08:00,38.8,34.7,29.59,North,0,0.0,0.0,85,0.00,,---,0.12,VWS V13.01,2013-11-25 20:08:00,
2013-11-25 14:13:00,38.8,34.7,29.59,North,0,0.0,0.0,85,0.00,,---,0.12,VWS V13.01,2013-11-25 20:13:00,
2013-11-25 14:18:00,38.8,35.0,29.59,North,0,0.0,0.0,86,0.00,,---,0.12,VWS V13.01,2013-11-25 20:18:00,
2013-11-25 14:23:00,38.8,35.0,29.59,North,0,0.0,0.0,86,0.00,,---,0.12,VWS V13.01,2013-11-25 20:23:00,
2013-11-25 14:28:00,38.8,35.0,29.59,North,0,0.0,0.0,86,0.00,,---,0.12,VWS V13.01,2013-11-25 20:28:00,
2013-11-25 14:33:00,38.8,35.0,29.59,North,0,0.0,0.0,86,0.00,,---,0.12,VWS V13.01,2013-11-25 20:33:00,
2013-11-25 14:38:00,38.8,35.0,29.59,North,0,0.0,0.0,86,0.00,,---,0.12,VWS V13.01,2013-11-25 20:38:00,
2013-11-25 14:43:00,38.8,35.0,29.59,North,0,0.0,0.0,86,0.00,,---,0.12,VWS V13.01,2013-11-25 20:43:00,
2013-11-25 14:48:00,38.8,35.0,29.59,North,0,0.0,0.0,86,0.00,,---,0.12,VWS V13.01,2013-11-25 20:48:00,
2013-11-25 14:53:00,38.8,35.0,29.59,North,0,0.0,0.0,86,0.00,,---,0.12,VWS V13.01,2013-11-25 20:53:00,
2013-11-25 14:58:00,38.8,35.0,29.59,North,0,0.0,0.0,86,0.00,,---,0.12,VWS V13.01,2013-11-25 20:58:00,
2013-11-25 15:03:00,38.8,35.0,29.59,North,0,0.0,0.0,86,0.00,,---,0.12,VWS V13.01,2013-11-25 21:03:00,
2013-11-25 15:08:00,38.8,35.0,29.59,North,0,0.0,0.0,86,0.00,,---,0.12,VWS V13.01,2013-11-25 21:08:00,
2013-11-25 15:13:00,38.5,34.1,29.59,North,0,0.0,0.0,84,0.00,,---,0.12,VWS V13.01,2013-11-25 21:13:00,
2013-11-25 15:18:00,38.5,34.1,29.59,North,0,0.0,0.0,84,0.00,,---,0.12,VWS V13.01,2013-11-25 21:18:00,
2013-11-25 15:23:00,38.5,34.1,29.59,North,0,0.0,0.0,84,0.00,,---,0.12,VWS V13.01,2013-11-25 21:23:00,
2013-11-25 15:28:00,38.5,34.1,29.59,North,0,0.0,0.0,84,0.00,,---,0.12,VWS V13.01,2013-11-25 21:28:00,
2013-11-25 15:33:00,38.5,34.1,29.59,North,0,0.0,0.0,84,0.00,,---,0.12,VWS V13.01,2013-11-25 21:33:00,
2013-11-25 15:38:00,38.5,34.4,29.56,North,0,0.0,0.0,85,0.00,,---,0.12,VWS V13.01,2013-11-25 21:38:00,
2013-11-25 15:43:00,38.5,34.4,29.56,North,0,0.0,0.0,85,0.00,,---,0.12,VWS V13.01,2013-11-25 21:43:00,
2013-11-25 15:48:00,38.5,34.4,29.56,North,0,0.0,0.0,85,0.00,,---,0.12,VWS V13.01,2013-11-25 21:48:00,
2013-11-25 15:53:00,38.5,34.4,29.56,North,0,0.0,0.0,85,0.00,,---,0.12,VWS V13.01,2013-11-25 21:53:00,
2013-11-25 15:58:00,38.5,34.4,29.56,North,0,0.0,0.0,85,0.00,,---,0.12,VWS V13.01,2013-11-25 21:58:00,
2013-11-25 16:03:00,38.5,34.4,29.56,North,0,0.0,0.0,85,0.00,,---,0.12,VWS V13.01,2013-11-25 22:03:00,
2013-11-25 16:08:00,38.5,34.4,29.56,North,0,0.0,0.0,85,0.00,,---,0.12,VWS V13.01,2013-11-25 22:08:00,
2013-11-25 16:13:00,38.5,34.4,29.56,North,0,0.0,0.0,85,0.00,,---,0.12,VWS V13.01,2013-11-25 22:13:00,
2013-11-25 16:18:00,38.5,34.4,29.56,North,0,0.0,0.0,85,0.00,,---,0.12,VWS V13.01,2013-11-25 22:18:00,
2013-11-25 16:23:00,38.5,34.4,29.56,North,0,0.0,0.0,85,0.00,,---,0.12,VWS V13.01,2013-11-25 22:23:00,
2013-11-25 16:28:00,38.5,34.4,29.56,North,0,0.0,0.0,85,0.00,,---,0.12,VWS V13.01,2013-11-25 22:28:00,
2013-11-25 16:33:00,38.5,34.4,29.56,North,0,0.0,0.0,85,0.00,,---,0.12,VWS V13.01,2013-11-25 22:33:00,
2013-11-25 16:38:00,38.5,34.4,29.56,North,0,0.0,0.0,85,0.00,,---,0.12,VWS V13.01,2013-11-25 22:38:00,
2013-11-25 16:43:00,38.5,34.4,29.56,North,0,0.0,0.0,85,0.00,,---,0.12,VWS V13.01,2013-11-25 22:43:00,
2013-11-25 16:48:00,38.5,34.4,29.53,North,0,0.0,0.0,85,0.00,,---,0.12,VWS V13.01,2013-11-25 22:48:00,
2013-11-25 16:53:00,38.5,34.4,29.53,North,0,0.0,0.0,85,0.00,,---,0.12,VWS V13.01,2013-11-25 22:53:00,
2013-11-25 16:58:00,38.5,34.4,29.53,North,0,0.0,0.0,85,0.00,,---,0.12,VWS V13.01,2013-11-25 22:58:00,
2013-11-25 17:03:00,38.5,34.4,29.53,North,0,0.0,0.0,85,0.00,,---,0.12,VWS V13.01,2013-11-25 23:03:00,
2013-11-25 17:08:00,38.5,34.4,29.53,North,0,0.0,0.0,85,0.00,,---,0.12,VWS V13.01,2013-11-25 23:08:00,
2013-11-25 17:13:00,38.5,34.4,29.56,North,0,0.0,0.0,85,0.00,,---,0.12,VWS V13.01,2013-11-25 23:13:00,
2013-11-25 17:18:00,38.5,34.4,29.56,North,0,0.0,0.0,85,0.00,,---,0.12,VWS V13.01,2013-11-25 23:18:00,
2013-11-25 17:23:00,38.5,34.4,29.56,North,0,0.0,0.0,85,0.00,,---,0.12,VWS V13.01,2013-11-25 23:23:00,
2013-11-25 17:28:00,38.5,34.4,29.56,North,0,0.0,0.0,85,0.00,,---,0.12,VWS V13.01,2013-11-25 23:28:00,
2013-11-25 17:33:00,38.5,34.4,29.56,North,0,0.0,0.0,85,0.00,,---,0.12,VWS V13.01,2013-11-25 23:33:00,
2013-11-25 17:38:00,38.5,34.4,29.56,North,0,0.0,0.0,85,0.00,,---,0.12,VWS V13.01,2013-11-25 23:38:00,
2013-11-25 17:43:00,38.5,34.4,29.56,North,0,0.0,0.0,85,0.00,,---,0.12,VWS V13.01,2013-11-25 23:43:00,
2013-11-25 17:48:00,38.5,34.4,29.56,North,0,0.0,0.0,85,0.00,,---,0.12,VWS V13.01,2013-11-25 23:48:00,
2013-11-25 17:53:00,38.5,34.4,29.56,North,0,0.0,0.0,85,0.00,,---,0.12,VWS V13.01,2013-11-25 23:53:00,
2013-11-25 17:58:00,38.5,34.4,29.56,North,0,0.0,0.0,85,0.00,,---,0.12,VWS V13.01,2013-11-25 23:58:00,
2013-11-25 18:03:00,38.5,34.4,29.56,North,0,0.0,0.0,85,0.00,,---,0.12,VWS V13.01,2013-11-26 00:03:00,
2013-11-25 18:08:00,38.5,34.4,29.56,North,0,0.0,0.0,85,0.00,,---,0.12,VWS V13.01,2013-11-26 00:08:00,
2013-11-25 18:13:00,38.5,34.4,29.56,North,0,0.0,0.0,85,0.00,,---,0.12,VWS V13.01,2013-11-26 00:13:00,
2013-11-25 18:18:00,38.5,34.4,29.56,North,0,0.0,0.0,85,0.00,,---,0.12,VWS V13.01,2013-11-26 00:18:00,
2013-11-25 18:23:00,38.5,34.4,29.56,North,0,0.0,0.0,85,0.00,,---,0.12,VWS V13.01,2013-11-26 00:23:00,
2013-11-25 18:28:00,38.5,34.4,29.56,North,0,0.0,0.0,85,0.00,,---,0.12,VWS V13.01,2013-11-26 00:28:00,
2013-11-25 18:33:00,38.5,34.4,29.56,North,0,0.0,0.0,85,0.00,,---,0.12,VWS V13.01,2013-11-26 00:33:00,
2013-11-25 18:38:00,38.5,34.4,29.56,North,0,0.0,0.0,85,0.00,,---,0.12,VWS V13.01,2013-11-26 00:38:00,
2013-11-25 18:43:00,38.5,34.4,29.56,North,0,0.0,0.0,85,0.00,,---,0.12,VWS V13.01,2013-11-26 00:43:00,
2013-11-25 18:48:00,38.5,34.4,29.56,North,0,0.0,0.0,85,0.00,,---,0.12,VWS V13.01,2013-11-26 00:48:00,
2013-11-25 18:53:00,38.5,34.4,29.56,North,0,0.0,0.0,85,0.00,,---,0.12,VWS V13.01,2013-11-26 00:53:00,
2013-11-25 18:58:00,38.5,34.4,29.56,North,0,0.0,0.0,85,0.00,,---,0.12,VWS V13.01,2013-11-26 00:58:00,
2013-11-25 19:03:00,38.5,34.4,29.56,North,0,0.0,0.0,85,0.00,,---,0.12,VWS V13.01,2013-11-26 01:03:00,
2013-11-25 19:08:00,38.5,34.4,29.59,North,0,0.0,0.0,85,0.00,,---,0.12,VWS V13.01,2013-11-26 01:08:00,
2013-11-25 19:13:00,38.5,34.4,29.59,North,0,0.0,0.0,85,0.00,,---,0.12,VWS V13.01,2013-11-26 01:13:00,
2013-11-25 19:18:00,38.5,34.4,29.59,North,0,0.0,0.0,85,0.00,,---,0.12,VWS V13.01,2013-11-26 01:18:00,
2013-11-25 19:23:00,38.5,34.4,29.59,North,0,0.0,0.0,85,0.00,,---,0.12,VWS V13.01,2013-11-26 01:23:00,
2013-11-25 19:28:00,38.5,34.4,29.59,North,0,0.0,0.0,85,0.00,,---,0.12,VWS V13.01,2013-11-26 01:28:00,
2013-11-25 19:33:00,38.5,34.4,29.59,North,0,0.0,0.0,85,0.00,,---,0.12,VWS V13.01,2013-11-26 01:33:00,
2013-11-25 19:38:00,38.5,34.4,29.59,North,0,0.0,0.0,85,0.00,,---,0.12,VWS V13.01,2013-11-26 01:38:00,
2013-11-25 19:43:00,38.5,34.4,29.59,North,0,0.0,0.0,85,0.00,,---,0.12,VWS V13.01,2013-11-26 01:43:00,
2013-11-25 19:48:00,38.5,34.4,29.59,North,0,0.0,0.0,85,0.00,,---,0.12,VWS V13.01,2013-11-26 01:48:00,
2013-11-25 19:53:00,38.5,34.4,29.59,North,0,0.0,0.0,85,0.00,,---,0.12,VWS V13.01,2013-11-26 01:53:00,
2013-11-25 19:58:00,38.5,34.4,29.59,North,0,0.0,0.0,85,0.00,,---,0.12,VWS V13.01,2013-11-26 01:58:00,
2013-11-25 20:03:00,38.5,34.4,29.59,North,0,0.0,0.0,85,0.00,,---,0.12,VWS V13.01,2013-11-26 02:03:00,
2013-11-25 20:08:00,38.5,34.4,29.59,North,0,0.0,0.0,85,0.00,,---,0.12,VWS V13.01,2013-11-26 02:08:00,
2013-11-25 20:13:00,38.5,34.4,29.59,North,0,0.0,0.0,85,0.00,,---,0.12,VWS V13.01,2013-11-26 02:13:00,
2013-11-25 20:18:00,38.5,34.4,29.59,North,0,0.0,0.0,85,0.00,,---,0.12,VWS V13.01,2013-11-26 02:18:00,
2013-11-25 20:23:00,38.5,34.4,29.59,North,0,0.0,0.0,85,0.00,,---,0.12,VWS V13.01,2013-11-26 02:23:00,
2013-11-25 20:28:00,38.5,34.4,29.59,North,0,0.0,0.0,85,0.00,,---,0.12,VWS V13.01,2013-11-26 02:28:00,
2013-11-25 20:33:00,38.5,34.4,29.59,North,0,0.0,0.0,85,0.00,,---,0.12,VWS V13.01,2013-11-26 02:33:00,
2013-11-25 20:38:00,38.5,34.4,29.59,North,0,0.0,0.0,85,0.00,,---,0.12,VWS V13.01,2013-11-26 02:38:00,
2013-11-25 20:43:00,38.5,34.4,29.59,North,0,0.0,0.0,85,0.00,,---,0.12,VWS V13.01,2013-11-26 02:43:00,
2013-11-25 20:48:00,37.6,32.9,29.59,North,0,0.0,0.0,83,0.00,,---,0.12,VWS V13.01,2013-11-26 02:48:00,
2013-11-25 20:53:00,37.6,32.9,29.59,North,0,0.0,0.0,83,0.00,,---,0.12,VWS V13.01,2013-11-26 02:53:00,
2013-11-25 20:58:00,37.6,32.9,29.59,North,0,0.0,0.0,83,0.00,,---,0.12,VWS V13.01,2013-11-26 02:58:00,
2013-11-25 21:03:00,37.6,32.9,29.59,North,0,0.0,0.0,83,0.00,,---,0.12,VWS V13.01,2013-11-26 03:03:00,
2013-11-25 21:08:00,37.6,32.9,29.59,North,0,0.0,0.0,83,0.00,,---,0.12,VWS V13.01,2013-11-26 03:08:00,
2013-11-25 21:13:00,37.6,32.9,29.59,North,0,0.0,0.0,83,0.00,,---,0.12,VWS V13.01,2013-11-26 03:13:00,
2013-11-25 21:18:00,37.6,32.9,29.59,North,0,0.0,0.0,83,0.00,,---,0.12,VWS V13.01,2013-11-26 03:18:00,
2013-11-25 21:23:00,37.6,32.9,29.59,North,0,0.0,0.0,83,0.00,,---,0.12,VWS V13.01,2013-11-26 03:23:00,
2013-11-25 21:28:00,37.6,32.9,29.59,North,0,0.0,0.0,83,0.00,,---,0.12,VWS V13.01,2013-11-26 03:28:00,
2013-11-25 21:33:00,37.6,32.9,29.59,North,0,0.0,0.0,83,0.00,,---,0.12,VWS V13.01,2013-11-26 03:33:00,
2013-11-25 21:38:00,37.6,32.9,29.59,North,0,0.0,0.0,83,0.00,,---,0.12,VWS V13.01,2013-11-26 03:38:00,
2013-11-25 21:43:00,37.6,32.9,29.59,North,0,0.0,0.0,83,0.00,,---,0.12,VWS V13.01,2013-11-26 03:43:00,
2013-11-25 21:48:00,37.6,32.9,29.59,North,0,0.0,0.0,83,0.00,,---,0.12,VWS V13.01,2013-11-26 03:48:00,
2013-11-25 21:53:00,37.6,32.9,29.59,North,0,0.0,0.0,83,0.00,,---,0.12,VWS V13.01,2013-11-26 03:53:00,
2013-11-25 21:58:00,37.8,33.4,29.59,North,0,0.0,0.0,84,0.00,,---,0.12,VWS V13.01,2013-11-26 03:58:00,
2013-11-25 22:03:00,37.8,33.4,29.59,North,0,0.0,0.0,84,0.00,,---,0.12,VWS V13.01,2013-11-26 04:03:00,
2013-11-25 22:08:00,37.8,33.4,29.59,North,0,0.0,0.0,84,0.00,,---,0.12,VWS V13.01,2013-11-26 04:08:00,
2013-11-25 22:13:00,37.8,33.4,29.59,North,0,0.0,0.0,84,0.00,,---,0.12,VWS V13.01,2013-11-26 04:13:00,
2013-11-25 22:18:00,37.8,33.4,29.59,North,0,0.0,0.0,84,0.00,,---,0.12,VWS V13.01,2013-11-26 04:18:00,
2013-11-25 22:23:00,37.9,33.0,29.59,North,0,0.0,0.0,82,0.00,,---,0.12,VWS V13.01,2013-11-26 04:23:00,
2013-11-25 22:28:00,37.9,33.0,29.59,North,0,0.0,0.0,82,0.00,,---,0.12,VWS V13.01,2013-11-26 04:28:00,
2013-11-25 22:33:00,37.9,33.0,29.59,North,0,0.0,0.0,82,0.00,,---,0.12,VWS V13.01,2013-11-26 04:33:00,
2013-11-25 22:38:00,37.8,32.5,29.59,North,0,0.0,0.0,81,0.00,,---,0.12,VWS V13.01,2013-11-26 04:38:00,
2013-11-25 22:43:00,37.8,32.5,29.59,North,0,0.0,0.0,81,0.00,,---,0.12,VWS V13.01,2013-11-26 04:43:00,
2013-11-25 22:48:00,37.8,32.5,29.59,North,0,0.0,0.0,81,0.00,,---,0.12,VWS V13.01,2013-11-26 04:48:00,
2013-11-25 22:53:00,37.6,32.0,29.59,North,0,0.0,0.0,80,0.00,,---,0.12,VWS V13.01,2013-11-26 04:53:00,
2013-11-25 22:58:00,37.6,32.0,29.59,North,0,0.0,0.0,80,0.00,,---,0.12,VWS V13.01,2013-11-26 04:58:00,
2013-11-25 23:01:00,37.6,32.0,29.59,North,0,0.0,0.0,80,0.00,,---,0.12,VWS V13.01,2013-11-26 05:01:00,
2013-11-25 23:02:00,37.6,32.0,29.59,North,0,0.0,0.0,80,0.00,,---,0.12,VWS V13.01,2013-11-26 05:02:00,
2013-11-25 23:07:00,37.6,32.0,29.59,North,0,0.0,0.0,80,0.00,,---,0.12,VWS V13.01,2013-11-26 05:07:00,